Time,TemperatureF,DewpointF,PressureIn,WindDirection,WindDirectionDegrees,WindSpeedMPH,WindSpeedGustMPH,Humidity,HourlyPrecipIn,Conditions,Clouds,dailyrainin,SoftwareType,DateUTC
2013-03-07 08:01:00,40.4,35.3,30.19,NNW,348,0.0,15.0,82,0.00,,,0.00,Wunderground v.1.15,2013-03-07 13:01:00,
2013-03-07 08:05:00,41.1,35.7,30.19,WNW,288,0.0,15.0,81,0.00,,,0.00,Wunderground v.1.15,2013-03-07 13:05:00,
2013-03-07 08:10:00,42.0,36.0,30.19,North,9,0.0,15.0,79,0.00,,,0.00,Wunderground v.1.15,2013-03-07 13:10:00,
2013-03-07 08:15:00,42.7,36.0,30.19,North,355,1.0,15.0,77,0.00,,,0.00,Wunderground v.1.15,2013-03-07 13:15:00,
2013-03-07 08:20:00,43.2,35.8,30.19,North,350,1.0,1.0,75,0.00,,,0.00,Wunderground v.1.15,2013-03-07 13:20:00,
2013-03-07 08:25:00,43.8,35.7,30.19,North,349,1.0,1.0,73,0.00,,,0.00,Wunderground v.1.15,2013-03-07 13:25:00,
2013-03-07 08:30:00,44.6,36.5,30.19,North,355,0.0,0.0,73,0.00,,,0.00,Wunderground v.1.15,2013-03-07 13:30:00,
2013-03-07 08:35:00,45.1,35.9,30.19,North,11,1.0,5.0,70,0.00,,,0.00,Wunderground v.1.15,2013-03-07 13:35:00,
2013-03-07 08:40:00,45.5,35.5,30.19,North,351,2.0,2.0,68,0.00,,,0.00,Wunderground v.1.15,2013-03-07 13:40:00,
2013-03-07 08:50:00,45.9,35.6,30.20,NW,322,0.0,1.0,67,0.00,,,0.00,Wunderground v.1.15,2013-03-07 13:50:00,
2013-03-07 08:55:00,46.5,35.7,30.19,North,355,1.0,4.0,66,0.00,,,0.00,Wunderground v.1.15,2013-03-07 13:55:00,
2013-03-07 09:00:00,46.7,35.9,30.20,North,350,2.0,2.0,66,0.00,,,0.00,Wunderground v.1.15,2013-03-07 14:00:00,
2013-03-07 09:05:00,47.0,35.8,30.20,NNE,17,2.0,4.0,65,0.00,,,0.00,Wunderground v.1.15,2013-03-07 14:05:00,
2013-03-07 09:15:00,47.9,36.7,30.20,North,355,4.0,10.0,65,0.00,,,0.00,Wunderground v.1.15,2013-03-07 14:15:00,
2013-03-07 09:20:00,48.3,36.3,30.21,North,11,4.0,4.0,63,0.00,,,0.00,Wunderground v.1.15,2013-03-07 14:20:00,
2013-03-07 09:25:00,49.2,36.7,30.21,North,355,3.0,4.0,62,0.00,,,0.00,Wunderground v.1.15,2013-03-07 14:25:00,
2013-03-07 09:30:00,49.2,36.7,30.21,North,355,2.0,2.0,62,0.00,,,0.00,Wunderground v.1.15,2013-03-07 14:30:00,
2013-03-07 09:35:00,49.5,36.6,30.21,North,5,1.0,2.0,61,0.00,,,0.00,Wunderground v.1.15,2013-03-07 14:35:00,
2013-03-07 09:40:00,49.3,37.2,30.21,North,355,1.0,2.0,63,0.00,,,0.00,Wunderground v.1.15,2013-03-07 14:40:00,
2013-03-07 09:45:00,49.6,37.1,30.21,NW,325,0.0,2.0,62,0.00,,,0.00,Wunderground v.1.15,2013-03-07 14:45:00,
2013-03-07 09:50:00,50.4,37.9,30.21,North,360,1.0,2.0,62,0.00,,,0.00,Wunderground v.1.15,2013-03-07 14:50:00,
2013-03-07 10:00:00,51.5,38.9,30.22,North,5,2.0,2.0,62,0.00,,,0.00,Wunderground v.1.15,2013-03-07 15:00:00,
2013-03-07 10:10:00,51.2,38.2,30.21,North,5,2.0,2.0,61,0.00,,,0.00,Wunderground v.1.15,2013-03-07 15:10:00,
2013-03-07 10:15:00,52.2,37.9,30.21,WNW,291,1.0,2.0,58,0.00,,,0.00,Wunderground v.1.15,2013-03-07 15:15:00,
2013-03-07 10:20:00,52.6,39.1,30.21,North,360,2.0,4.0,60,0.00,,,0.00,Wunderground v.1.15,2013-03-07 15:20:00,
2013-03-07 10:25:00,53.0,38.6,30.21,NW,322,2.0,4.0,58,0.00,,,0.00,Wunderground v.1.15,2013-03-07 15:25:00,
2013-03-07 10:30:00,52.5,38.6,30.21,North,11,2.0,3.0,59,0.00,,,0.00,Wunderground v.1.15,2013-03-07 15:30:00,
2013-03-07 10:35:00,53.4,39.0,30.21,NE,48,1.0,3.0,58,0.00,,,0.00,Wunderground v.1.15,2013-03-07 15:35:00,
2013-03-07 10:40:00,52.0,37.7,30.21,NNE,29,1.0,3.0,58,0.00,,,0.00,Wunderground v.1.15,2013-03-07 15:40:00,
2013-03-07 10:45:00,54.2,38.8,30.21,NNE,20,1.0,3.0,56,0.00,,,0.00,Wunderground v.1.15,2013-03-07 15:45:00,
2013-03-07 10:50:00,53.1,37.8,30.21,NE,37,1.0,1.0,56,0.00,,,0.00,Wunderground v.1.15,2013-03-07 15:50:00,
2013-03-07 11:00:00,54.4,38.1,30.22,East,94,1.0,1.0,54,0.00,,,0.00,Wunderground v.1.15,2013-03-07 16:00:00,
2013-03-07 11:10:00,54.6,39.2,30.21,NE,43,1.0,1.0,56,0.00,,,0.00,Wunderground v.1.15,2013-03-07 16:10:00,
2013-03-07 11:15:00,54.4,38.1,30.21,East,94,0.0,2.0,54,0.00,,,0.00,Wunderground v.1.15,2013-03-07 16:15:00,
2013-03-07 11:20:00,55.5,39.6,30.21,NNW,345,0.0,2.0,55,0.00,,,0.00,Wunderground v.1.15,2013-03-07 16:20:00,
2013-03-07 11:25:00,55.2,37.4,30.20,North,355,0.0,2.0,51,0.00,,,0.00,Wunderground v.1.15,2013-03-07 16:25:00,
2013-03-07 11:30:00,56.0,39.6,30.20,NNE,13,1.0,2.0,54,0.00,,,0.00,Wunderground v.1.15,2013-03-07 16:30:00,
2013-03-07 11:35:00,55.5,37.7,30.20,ENE,64,0.0,2.0,51,0.00,,,0.00,Wunderground v.1.15,2013-03-07 16:35:00,
2013-03-07 11:45:00,57.1,40.1,30.20,East,98,0.0,2.0,53,0.00,,,0.00,Wunderground v.1.15,2013-03-07 16:45:00,
2013-03-07 11:50:00,57.5,37.9,30.19,NNE,19,1.0,5.0,48,0.00,,,0.00,Wunderground v.1.15,2013-03-07 16:50:00,
2013-03-07 11:55:00,57.3,38.3,30.19,North,9,2.0,5.0,49,0.00,,,0.00,Wunderground v.1.15,2013-03-07 16:55:00,
2013-03-07 12:00:00,58.5,39.4,30.19,North,355,1.0,1.0,49,0.00,,,0.00,Wunderground v.1.15,2013-03-07 17:00:00,
2013-03-07 12:05:00,58.6,39.0,30.18,North,355,1.0,2.0,48,0.00,,,0.00,Wunderground v.1.15,2013-03-07 17:05:00,
2013-03-07 12:10:00,59.2,38.4,30.18,NNE,15,0.0,4.0,46,0.00,,,0.00,Wunderground v.1.15,2013-03-07 17:10:00,
2013-03-07 12:15:00,59.0,38.2,30.18,NNW,346,1.0,4.0,46,0.00,,,0.00,Wunderground v.1.15,2013-03-07 17:15:00,
2013-03-07 12:20:00,58.8,38.1,30.18,North,360,1.0,1.0,46,0.00,,,0.00,Wunderground v.1.15,2013-03-07 17:20:00,
2013-03-07 12:30:00,59.3,39.1,30.18,NNE,32,0.0,3.0,47,0.00,,,0.00,Wunderground v.1.15,2013-03-07 17:30:00,
2013-03-07 12:35:00,59.8,39.0,30.18,NNW,346,2.0,3.0,46,0.00,,,0.00,Wunderground v.1.15,2013-03-07 17:35:00,
2013-03-07 12:40:00,60.0,38.0,30.18,NNE,23,3.0,3.0,44,0.00,,,0.00,Wunderground v.1.15,2013-03-07 17:40:00,
2013-03-07 12:50:00,61.3,39.8,30.18,WNW,302,1.0,1.0,45,0.00,,,0.00,Wunderground v.1.15,2013-03-07 17:50:00,
2013-03-07 12:55:00,61.8,39.1,30.18,North,360,0.0,8.0,43,0.00,,,0.00,Wunderground v.1.15,2013-03-07 17:55:00,
2013-03-07 13:00:00,61.4,38.7,30.18,North,350,2.0,2.0,43,0.00,,,0.00,Wunderground v.1.15,2013-03-07 18:00:00,
2013-03-07 13:10:00,61.3,39.2,30.17,North,360,1.0,14.0,44,0.00,,,0.00,Wunderground v.1.15,2013-03-07 18:10:00,
2013-03-07 13:15:00,61.5,38.2,30.17,North,355,3.0,14.0,42,0.00,,,0.00,Wunderground v.1.15,2013-03-07 18:15:00,
2013-03-07 13:25:00,61.6,39.5,30.17,NNE,13,1.0,2.0,44,0.00,,,0.00,Wunderground v.1.15,2013-03-07 18:25:00,
2013-03-07 13:30:00,62.0,38.0,30.16,NNE,22,1.0,1.0,41,0.00,,,0.00,Wunderground v.1.15,2013-03-07 18:30:00,
2013-03-07 13:35:00,62.0,39.2,30.16,North,5,2.0,2.0,43,0.00,,,0.00,Wunderground v.1.15,2013-03-07 18:35:00,
2013-03-07 13:40:00,62.1,38.7,30.16,NNE,27,2.0,2.0,42,0.00,,,0.00,Wunderground v.1.15,2013-03-07 18:40:00,
2013-03-07 13:45:00,62.1,39.3,30.16,NNE,17,2.0,2.0,43,0.00,,,0.00,Wunderground v.1.15,2013-03-07 18:45:00,
2013-03-07 13:50:00,61.7,39.6,30.16,North,360,2.0,2.0,44,0.00,,,0.00,Wunderground v.1.15,2013-03-07 18:50:00,
2013-03-07 14:00:00,63.6,40.1,30.16,North,360,1.0,4.0,42,0.00,,,0.00,Wunderground v.1.15,2013-03-07 19:00:00,
2013-03-07 14:10:00,62.7,39.3,30.15,NNE,33,0.0,2.0,42,0.00,,,0.00,Wunderground v.1.15,2013-03-07 19:10:00,
2013-03-07 14:15:00,62.9,41.2,30.15,SSE,154,0.0,2.0,45,0.00,,,0.00,Wunderground v.1.15,2013-03-07 19:15:00,
2013-03-07 14:20:00,63.5,40.6,30.14,West,274,0.0,2.0,43,0.00,,,0.00,Wunderground v.1.15,2013-03-07 19:20:00,
2013-03-07 14:25:00,63.0,38.9,30.14,SW,216,1.0,2.0,41,0.00,,,0.00,Wunderground v.1.15,2013-03-07 19:25:00,
2013-03-07 14:35:00,64.8,41.8,30.13,North,9,1.0,5.0,43,0.00,,,0.00,Wunderground v.1.15,2013-03-07 19:35:00,
2013-03-07 14:40:00,63.9,39.7,30.13,North,5,2.0,2.0,41,0.00,,,0.00,Wunderground v.1.15,2013-03-07 19:40:00,
2013-03-07 14:50:00,65.1,41.4,30.13,North,360,2.0,2.0,42,0.00,,,0.00,Wunderground v.1.15,2013-03-07 19:50:00,
2013-03-07 14:55:00,65.5,40.5,30.13,North,355,2.0,2.0,40,0.00,,,0.00,Wunderground v.1.15,2013-03-07 19:55:00,
2013-03-07 15:00:00,65.3,39.7,30.13,North,355,1.0,1.0,39,0.00,,,0.00,Wunderground v.1.15,2013-03-07 20:00:00,
2013-03-07 15:05:00,65.7,40.1,30.12,North,5,0.0,2.0,39,0.00,,,0.00,Wunderground v.1.15,2013-03-07 20:05:00,
2013-03-07 15:10:00,66.7,37.4,30.12,North,355,1.0,1.0,34,0.00,,,0.00,Wunderground v.1.15,2013-03-07 20:10:00,
2013-03-07 15:20:00,66.8,39.0,30.13,WNW,284,1.0,1.0,36,0.00,,,0.00,Wunderground v.1.15,2013-03-07 20:20:00,
2013-03-07 15:25:00,65.7,37.3,30.12,North,355,1.0,2.0,35,0.00,,,0.00,Wunderground v.1.15,2013-03-07 20:25:00,
2013-03-07 15:30:00,65.9,37.5,30.13,North,9,2.0,2.0,35,0.00,,,0.00,Wunderground v.1.15,2013-03-07 20:30:00,
2013-03-07 15:40:00,66.1,39.1,30.12,North,355,2.0,2.0,37,0.00,,,0.00,Wunderground v.1.15,2013-03-07 20:40:00,
2013-03-07 15:45:00,65.9,38.2,30.13,NNW,348,1.0,6.0,36,0.00,,,0.00,Wunderground v.1.15,2013-03-07 20:45:00,
2013-03-07 15:50:00,65.8,37.4,30.13,North,5,2.0,2.0,35,0.00,,,0.00,Wunderground v.1.15,2013-03-07 20:50:00,
2013-03-07 15:55:00,66.1,36.9,30.13,West,275,2.0,5.0,34,0.00,,,0.00,Wunderground v.1.15,2013-03-07 20:55:00,
2013-03-07 16:00:00,66.7,36.7,30.13,WSW,256,1.0,3.0,33,0.00,,,0.00,Wunderground v.1.15,2013-03-07 21:00:00,
2013-03-07 16:10:00,66.8,37.5,30.13,WNW,284,1.0,2.0,34,0.00,,,0.00,Wunderground v.1.15,2013-03-07 21:10:00,
2013-03-07 16:20:00,67.1,37.0,30.13,NNE,12,1.0,3.0,33,0.00,,,0.00,Wunderground v.1.15,2013-03-07 21:20:00,
2013-03-07 16:25:00,66.4,36.4,30.13,NNW,342,1.0,3.0,33,0.00,,,0.00,Wunderground v.1.15,2013-03-07 21:25:00,
2013-03-07 16:30:00,66.3,37.8,30.12,NNW,342,1.0,1.0,35,0.00,,,0.00,Wunderground v.1.15,2013-03-07 21:30:00,
2013-03-07 16:35:00,66.2,37.0,30.12,NNW,342,0.0,2.0,34,0.00,,,0.00,Wunderground v.1.15,2013-03-07 21:35:00,
2013-03-07 16:40:00,66.2,37.0,30.12,NW,319,0.0,2.0,34,0.00,,,0.00,Wunderground v.1.15,2013-03-07 21:40:00,
2013-03-07 16:50:00,66.2,37.0,30.12,West,279,0.0,2.0,34,0.00,,,0.00,Wunderground v.1.15,2013-03-07 21:50:00,
2013-03-07 19:08:00,57.0,39.0,30.15,North,9,0.0,2.0,51,0.00,,,0.00,Wunderground v.1.15,2013-03-08 00:08:00,
2013-03-07 19:15:00,56.4,39.0,30.15,North,9,0.0,0.0,52,0.00,,,0.00,Wunderground v.1.15,2013-03-08 00:15:00,
2013-03-07 19:20:00,55.9,40.4,30.15,North,9,0.0,0.0,56,0.00,,,0.00,Wunderground v.1.15,2013-03-08 00:20:00,
2013-03-07 19:30:00,54.9,40.4,30.16,WSW,246,0.0,0.0,58,0.00,,,0.00,Wunderground v.1.15,2013-03-08 00:30:00,
2013-03-07 19:35:00,54.5,40.0,30.16,WSW,246,0.0,0.0,58,0.00,,,0.00,Wunderground v.1.15,2013-03-08 00:35:00,
2013-03-07 19:40:00,54.2,40.2,30.16,WSW,246,0.0,0.0,59,0.00,,,0.00,Wunderground v.1.15,2013-03-08 00:40:00,
2013-03-07 19:45:00,53.9,40.8,30.16,WSW,246,0.0,0.0,61,0.00,,,0.00,Wunderground v.1.15,2013-03-08 00:45:00,
2013-03-07 19:50:00,53.7,40.6,30.16,WSW,249,0.0,0.0,61,0.00,,,0.00,Wunderground v.1.15,2013-03-08 00:50:00,
2013-03-07 19:55:00,53.6,40.9,30.16,WSW,250,0.0,0.0,62,0.00,,,0.00,Wunderground v.1.15,2013-03-08 00:55:00,
2013-03-07 20:00:00,53.5,41.2,30.16,WSW,250,0.0,0.0,63,0.00,,,0.00,Wunderground v.1.15,2013-03-08 01:00:00,
2013-03-07 20:05:00,53.4,41.1,30.16,WSW,250,0.0,0.0,63,0.00,,,0.00,Wunderground v.1.15,2013-03-08 01:05:00,
2013-03-07 20:15:00,53.0,41.1,30.16,WSW,250,0.0,0.0,64,0.00,,,0.00,Wunderground v.1.15,2013-03-08 01:15:00,
2013-03-07 20:20:00,52.8,41.0,30.17,WSW,250,0.0,0.0,64,0.00,,,0.00,Wunderground v.1.15,2013-03-08 01:20:00,
2013-03-07 20:25:00,52.6,41.2,30.17,SW,221,0.0,0.0,65,0.00,,,0.00,Wunderground v.1.15,2013-03-08 01:25:00,
2013-03-07 20:30:00,52.4,41.4,30.17,SW,221,0.0,0.0,66,0.00,,,0.00,Wunderground v.1.15,2013-03-08 01:30:00,
2013-03-07 20:40:00,52.1,41.5,30.17,SW,221,0.0,0.0,67,0.00,,,0.00,Wunderground v.1.15,2013-03-08 01:40:00,
2013-03-07 20:45:00,52.0,41.4,30.18,SW,229,0.0,0.0,67,0.00,,,0.00,Wunderground v.1.15,2013-03-08 01:45:00,
2013-03-07 20:50:00,51.8,41.6,30.18,SW,229,0.0,0.0,68,0.00,,,0.00,Wunderground v.1.15,2013-03-08 01:50:00,
2013-03-07 20:55:00,51.6,41.4,30.18,SW,232,0.0,0.0,68,0.00,,,0.00,Wunderground v.1.15,2013-03-08 01:55:00,
2013-03-07 21:00:00,51.4,41.6,30.18,SW,232,0.0,0.0,69,0.00,,,0.00,Wunderground v.1.15,2013-03-08 02:00:00,
2013-03-07 21:05:00,51.2,41.4,30.18,WSW,240,0.0,1.0,69,0.00,,,0.00,Wunderground v.1.15,2013-03-08 02:05:00,
2013-03-07 21:10:00,50.9,41.5,30.19,West,263,0.0,0.0,70,0.00,,,0.00,Wunderground v.1.15,2013-03-08 02:10:00,
2013-03-07 21:15:00,50.6,41.5,30.18,West,264,0.0,2.0,71,0.00,,,0.00,Wunderground v.1.15,2013-03-08 02:15:00,